Flight Track Log - Related Links

Times and Time Zones

All times are in EDT time to prevent confusion due to time zone crossing. See the UAL4191 flight status page for this flight to view local times or setup timezone preferences in your user account.

Time Position Orientation Groundspeed Altitude Reporting Facility
EDT Latitude Longitude Course Direction KTS MPH feet Rate Location/Type
Mon 10:39:31 AM 32.8333 -96.8333 192° South 167 192 1,300  Level Dallas / Fort Worth TRACON
Mon 10:41:13 AM 32.7667 -96.7333 128° Southeast 242 278 5,200 2,246 Climbing Dallas / Fort Worth TRACON
Mon 10:42:00 AM 32.6417 -96.7399 164° South  Level Estimated
Mon 10:42:54 AM 32.6481 -96.7522 188° South 176 203 8,900  Level Fort Worth Center
Mon 10:43:00 AM 32.5732 -96.7028 168° South  Level Estimated
Mon 10:43:54 AM 32.5583 -96.7700 189° South 241 277 10,800  Level Fort Worth Center
Mon 10:44:00 AM 32.4995 -96.7211 192° South  Level FlightAware Approximate
Mon 10:44:54 AM 32.4769 -96.7856 189° South 317 365 12,400  Level Fort Worth Center
Mon 10:45:54 AM 32.3747 -96.8033 188° South 337 388 14,600 1,850 Climbing Fort Worth Center
Mon 10:46:54 AM 32.2892 -96.8136 186° South 343 395 16,100 1,750 Climbing Fort Worth Center
Mon 10:47:54 AM 32.1889 -96.7825 165° South 343 395 18,100 1,450 Climbing Fort Worth Center
Mon 10:48:54 AM 32.0925 -96.7439 161° South 354 407 19,000 1,400 Climbing Fort Worth Center
Mon 10:49:54 AM 31.9922 -96.7078 163° South 369 425 20,900 1,000 Climbing Fort Worth Center
Mon 10:50:54 AM 31.8875 -96.6647 161° South 388 447 21,000 50 Climbing Fort Worth Center
Mon 10:51:54 AM 31.7786 -96.6217 161° South 412 474 21,000  Level Fort Worth Center
Mon 10:53:48 AM 31.5681 -96.5347 161° South 428 493 21,000  Level Houston Center
Mon 10:54:50 AM 31.4567 -96.4903 161° South 418 481 21,000  Level Houston Center
Mon 10:55:52 AM 31.3458 -96.4494 163° South 413 475 21,000  Level Houston Center
Mon 10:56:54 AM 31.2350 -96.4069 162° South 413 475 21,000  Level Houston Center
Mon 10:57:56 AM 31.1242 -96.3667 163° South 411 473 21,000  Level Houston Center
Mon 10:58:58 AM 31.0139 -96.3253 162° South 411 473 21,000  Level Houston Center
Mon 11:00:00 AM 30.9053 -96.2839 162° South 408 470 21,000 -1,065 Level Houston Center
Mon 11:01:02 AM 30.7886 -96.2186 154° Southeast 389 448 18,800 -2,371 Descending Houston Center
Mon 11:02:04 AM 30.7167 -96.1392 136° Southeast 357 411 16,100 -2,600 Descending Houston Center
Mon 11:02:32 AM 30.6819 -96.1058 140° Southeast 347 399 14,900 -2,613 Descending Houston Center
Mon 11:03:06 AM 30.6442 -96.0617 135° Southeast 353 406 13,400 -2,866 Descending Houston Center
Mon 11:03:39 AM 30.5964 -96.0136 139° Southeast 372 428 11,700 -2,516 Descending Houston Center
Mon 11:04:08 AM 30.5719 -95.9869 137° Southeast 366 421 10,800 -1,452 Descending Houston Center
Mon 11:04:41 AM 30.5200 -95.9328 138° Southeast 366 421 10,200 -774 Descending Houston Center
Mon 11:05:10 AM 30.4981 -95.9103 139° Southeast 359 413 10,000 -197 Descending Houston Center
Mon 11:05:42 AM 30.4533 -95.8653 139° Southeast 297 342 10,000 -381 Level Houston Center
Mon 11:06:13 AM 30.4242 -95.8397 143° Southeast 289 333 9,600 -1,200 Descending Houston Center
Mon 11:06:42 AM 30.3839 -95.8394 180° South 277 319 8,800 -1,452 Descending Houston Center
Mon 11:07:15 AM 30.3478 -95.8353 174° South 273 314 8,100 -1,286 Descending Houston Center
Mon 11:07:38 AM 30.3142 -95.8331 177° South 277 319 7,600 -1,258 Descending Houston Center
Mon 11:08:17 AM 30.2719 -95.8294 176° South 275 316 6,800 -1,574 Descending Houston Center
Mon 11:08:39 AM 30.2403 -95.8272 177° South 254 292 6,000 -1,839 Descending Houston Center
Mon 11:09:19 AM 30.2022 -95.8225 174° South 256 295 4,900 -1,869 Descending Houston Center
Mon 11:09:40 AM 30.1681 -95.8186 174° South 254 292 4,100 -968 Descending Houston Center
Mon 11:10:21 AM 30.1331 -95.8122 171° South 252 290 3,900 -197 Descending Houston Center
Mon 11:10:41 AM 30.1067 -95.7897 144° Southeast 252 290 3,900 -290 Level Houston Center
Mon 11:11:23 AM 30.0783 -95.7653 143° Southeast 242 278 3,600 -787 Descending Houston Center
Mon 11:11:42 AM 30.0500 -95.7408 143° Southeast 243 280 3,100 -581 Descending Houston Center
Mon 11:12:25 AM 30.0167 -95.7061 138° Southeast 240 276 3,000 -98 Descending Houston Center
Mon 11:12:43 AM 30.0089 -95.6803 109° East 239 275 3,000  Level Houston Center
Mon 11:13:27 AM 30.0064 -95.6353 94° East 222 255 3,000  Level Houston Center
Mon 11:13:50 AM 30.0061 -95.6011 91° East 216 249 3,000  Level Houston Center
Mon 11:14:29 AM 30.0072 -95.5622 88° East 222 255 3,000  Level Houston Center

Login

Don't have an account? Register now (free) for customized features, flight alerts, and more!